Location: Forst
(46.9333°N, 15.4333°E)
Time: 05:37:35
(UTC+00:00)

Lacrosse 5 rocket - Pass Details

Date: 23 April 2021
Orbit: 460 x 634 km, 57.0° (Epoch: 12 May)

Event Time Altitude Azimuth Distance (km) Brightness Sun altitude
Rises 22:15:43 0° 305° (NW) 2,807 5.6 -29.5°
Reaches altitude 10° 22:17:59 10° 300° (WNW) 1,930 4.5 -29.6°
Enters shadow 22:19:33 21° 292° (WNW) 1,361 3.6 -29.6°
